Simultaneous Nadir Overpasses (SNOs) Predictions

Prediction of SNOs between GOES-16 and METOP-C Satellite Orbit:

Table of predicted SNOs for the next 14.0 days since TLE Epoch: 5/25/2019
Index Date Time (GOES-16) GOES-16 Lat,Lon METOP-C Lat,Lon Distance(km) Time Diff (sec)
1 05/27/2019 02:33:06 0.02, -75.18 -0.00, -75.26 8.75 80
2 05/29/2019 14:31:18 -0.02, -75.22 -0.09, -74.83 44.63 80
3 05/31/2019 02:50:20 0.02, -75.22 -0.93, -79.43 480.06 80
4 06/01/2019 02:27:01 0.02, -75.23 0.21, -74.44 90.06 80
5 06/02/2019 14:48:34 -0.01, -75.26 0.79, -79.00 425.78 80
6 06/03/2019 14:25:14 -0.02, -75.27 -0.29, -74.00 144.28 80
7 06/05/2019 02:46:55 0.02, -75.27 -0.72, -78.61 380.10 80
8 06/06/2019 02:23:37 0.03, -75.28 0.43, -73.62 189.93 80
9 06/07/2019 14:45:09 -0.04, -75.32 0.59, -78.18 325.99 80




NCC Satellite Simultaneous Nadir Overpasses (SNOs) Prediction Service
